CW0198 Weather Reports


time (UTC)temp
C
wind
direction
speed
KPH
gust
KPH
rain 1hr
cm
rain 24hr
cm
rain mn
cm
humidity
%
barometer
mb
20260904164532 33 266 4.8 11.3 0.00 0.00 0.00 72 1014.8
20260904163102 33 232 1.6 11.3 0.00 0.00 0.00 75 1014.8
20260904161518 32 217 4.8 11.3 0.00 0.00 0.00 73 1014.9
20260904160040 32 167 9.7 17.7 0.00 0.00 0.00 74 1014.9
20260904154558 32 229 6.4 14.5 0.00 0.00 0.00 74 1015.1
20260904153022 31 266 8.0 19.3 0.00 0.00 0.00 76 1015.2
20260904151526 31 232 1.6 9.7 0.00 0.00 0.00 79 1015.2
20260904150110 31 252 3.2 11.3 0.00 0.00 0.00 79 1015.1
20260904144514 30 278 4.8 11.3 0.00 0.00 0.00 80 1015.1
20260904143040 30 287 4.8 9.7 0.00 0.00 0.00 82 1015.3
20260904141609 29 243 6.4 17.7 0.00 0.00 0.00 83 1015.3
20260904140022 28 272 4.8 11.3 0.00 0.00 0.00 85 1015.2
20260904134552 28 230 4.8 11.3 0.00 0.00 0.00 87 1015.3
20260904133004 28 247 3.2 8.0 0.00 0.00 0.00 87 1015.2
20260904131530 27 314 4.8 11.3 0.00 0.00 0.00 89 1015.3
20260904130044 27 231 0.0 8.0 0.00 0.00 0.00 92 1015.3
20260904124505 26 233 1.6 8.0 0.00 0.00 0.00 94 1015.3
20260904123024 25 238 4.8 9.7 0.00 0.00 0.00 96 1015.3
20260904121547 24 210 1.6 8.0 0.00 0.00 0.00 97 1015.3
20260904120009 23 269 0.0 6.4 0.00 0.00 0.00 98 1015.3
20260904114537 23 248 0.0 3.2 0.00 0.00 0.00 98 1015.4
20260904113054 23 203 0.0 4.8 0.00 0.00 0.00 98 1015.2
20260904111526 23 214 0.0 3.2 0.00 0.00 0.00 98 1015.2
20260904110046 23 221 0.0 0.0 0.00 0.00 0.00 98 1015.2
20260904104512 23 226 0.0 1.6 0.00 0.00 0.00 98 1015.1
20260904103031 23 278 0.0 0.0 0.00 0.00 0.00 98 1015.0
20260904101556 23 217 0.0 0.0 0.00 0.00 0.00 98 1015.1
20260904100022 23 218 0.0 0.0 0.00 0.00 0.00 98 1014.9
20260904094544 23 216 0.0 0.0 0.00 0.00 0.00 98 1014.9
20260904093014 23 205 0.0 0.0 0.00 0.00 0.00 97 1014.9
20260904091534 23 212 0.0 0.0 0.00 0.00 0.00 97 1014.8
20260904090059 23 195 0.0 0.0 0.00 0.00 0.00 97 1014.7
20260904090002 23 198 0.0 0.0 0.00 0.00 0.00 97 1014.8
20260904084524 23 169 0.0 0.0 0.00 0.00 0.00 96 1014.5
20260904083058 23 160 0.0 0.0 0.00 0.00 0.00 96 1014.5
20260904081514 23 217 0.0 3.2 0.00 0.00 0.00 96 1014.3
20260904080035 23 210 0.0 3.2 0.00 0.00 0.00 96 1014.4
20260904074556 23 191 0.0 0.0 0.00 0.00 0.00 95 1014.4
20260904073025 23 226 0.0 0.0 0.00 0.00 0.00 95 1014.6
20260904071551 24 195 0.0 1.6 0.00 0.00 0.00 94 1014.7
20260904071501 24 196 0.0 1.6 0.00 0.00 0.00 94 1014.6
20260904070018 24 208 0.0 3.2 0.00 0.00 0.00 94 1014.6
20260904064550 24 202 0.0 0.0 0.00 0.00 0.00 94 1014.7
20260904063003 24 165 0.0 1.6 0.00 0.00 0.00 93 1015.0
20260904061533 25 202 0.0 0.0 0.00 0.00 0.00 92 1015.2
20260904060050 25 226 0.0 0.0 0.00 0.00 0.00 91 1015.5
20260904054524 25 231 0.0 0.0 0.00 0.00 0.00 91 1015.5
20260904053041 25 231 0.0 3.2 0.00 0.00 0.00 90 1015.8
20260904051505 25 227 0.0 1.6 0.00 0.00 0.00 90 1015.9
20260904050033 25 237 0.0 0.0 0.00 0.00 0.00 90 1015.9
20260904044556 26 227 0.0 4.8 0.00 0.00 0.00 89 1015.8
20260904043019 26 201 0.0 4.8 0.00 0.00 0.00 88 1015.8
20260904041541 26 176 0.0 8.0 0.00 0.00 0.00 88 1015.7
20260904040017 26 157 1.6 8.0 0.00 0.00 0.00 87 1015.5
20260904034521 26 199 3.2 9.7 0.00 0.00 0.00 87 1015.7
20260904033055 26 205 0.0 4.8 0.00 0.00 0.00 87 1015.9
20260904031523 27 207 1.6 4.8 0.00 0.00 0.00 87 1016.0
20260904030045 27 220 0.0 4.8 0.00 0.00 0.00 87 1015.9
20260904024512 27 214 1.6 6.4 0.00 0.00 0.00 87 1016.0
20260904023035 27 186 0.0 4.8 0.00 0.00 0.00 87 1016.0
20260904021606 27 158 1.6 4.8 0.00 0.00 0.00 86 1016.0
20260904020027 27 215 0.0 4.8 0.00 0.00 0.00 85 1015.9
20260904014601 27 270 0.0 3.2 0.00 0.00 0.00 84 1015.8
20260904013021 27 198 0.0 1.6 0.00 0.00 0.00 84 1015.6
20260904011556 27 207 0.0 0.0 0.00 0.00 0.00 83 1015.3
20260904010013 28 207 0.0 0.0 0.00 0.00 0.00 82 1015.2
20260904004549 28 154 0.0 0.0 0.00 0.00 0.00 80 1014.8
20260904003005 29 154 0.0 1.6 0.00 0.00 0.00 80 1014.5
20260904001536 29 165 0.0 0.0 0.00 0.00 0.00 79 1014.5
20260904000011 30 131 0.0 0.0 0.00 0.00 0.00 76 1014.3
20260903234533 31 149 0.0 1.6 0.00 0.00 0.00 74 1014.1
20260903233100 32 169 0.0 0.0 0.00 0.00 0.00 72 1014.0
20260903233001 32 169 0.0 0.0 0.00 0.00 0.00 72 1014.1
20260903231530 32 219 0.0 4.8 0.00 0.00 0.00 69 1014.1
20260903230053 33 134 0.0 6.4 0.00 0.00 0.00 69 1014.2
20260903224531 33 223 0.0 6.4 0.00 0.00 0.00 67 1014.1
20260903223047 34 168 3.2 8.0 0.00 0.00 0.00 66 1014.1
20260903221503 34 164 3.2 9.7 0.00 0.00 0.00 65 1014.1
20260903220044 35 195 1.6 8.0 0.00 0.00 0.00 65 1014.1
20260903214608 35 207 1.6 8.0 0.00 0.00 0.00 65 1014.1
20260903213028 35 203 4.8 9.7 0.00 0.00 0.00 62 1014.2
20260903211540 35 187 3.2 9.7 0.00 0.00 0.00 64 1014.3
20260903210127 35 227 1.6 8.0 0.00 0.00 0.00 64 1014.1
20260903210000 35 207 3.2 8.0 0.00 0.00 0.00 64 1014.1
20260903204529 35 226 3.2 8.0 0.00 0.00 0.00 64 1014.1
20260903203106 36 221 1.6 8.0 0.00 0.00 0.00 61 1014.2
20260903201518 36 217 1.6 4.8 0.00 0.00 0.00 60 1014.4
20260903200050 36 158 3.2 8.0 0.00 0.00 0.00 62 1014.5
20260903194601 36 290 0.0 6.4 0.00 0.00 0.00 62 1014.6
20260903194507 36 179 0.0 6.4 0.00 0.00 0.00 60 1014.7
20260903193027 36 248 4.8 12.9 0.00 0.00 0.00 64 1014.9
20260903191550 36 225 1.6 8.0 0.00 0.00 0.00 62 1014.9
20260903190017 36 205 3.2 6.4 0.00 0.00 0.00 62 1015.1
20260903184535 36 221 0.0 8.0 0.00 0.00 0.00 60 1015.4
20260903183054 36 218 1.6 8.0 0.00 0.00 0.00 63 1015.4
20260903181510 36 204 4.8 9.7 0.00 0.00 0.00 59 1015.4
20260903180044 36 174 1.6 8.0 0.00 0.00 0.00 59 1015.6
20260903174600 36 159 0.0 6.4 0.00 0.00 0.00 64 1015.8
20260903173016 35 165 0.0 4.8 0.00 0.00 0.00 60 1015.9
20260903171544 35 138 1.6 6.4 0.00 0.00 0.00 65 1016.0
20260903170100 35 162 1.6 6.4 0.00 0.00 0.00 64 1016.1
20260903170001 35 139 3.2 6.4 0.00 0.00 0.00 66 1016.2